Tracking 18647 objects as of 29-May-2017
HD Live streaming from Space Station
objects crossing your sky now

DELTA 1 DEB

Track DELTA 1 DEB now!
10-day predictions


NORAD ID: 2888
Int'l Code: 1965-089D
Perigee: 1,162.3 km
Apogee: 2,328.1 km
Inclination: 59.2 °
Period: 121.3 minutes
Semi major axis: 8116 km
RCS: 0.0459 m2 (small)
Launch date: November 6, 1965
Source: United States (US)
Launch site: AIR FORCE EASTERN TEST RANGE (AFETR)

Note: This is SATELLITE DEBRIS
Your satellite tracking list
Your tracking list is empty





NASA's NSSDC Master Catalog

Two Line Element Set (TLE):
1  2888U 65089D   17148.36511600 -.00000088 +00000-0 -10907-3 0  9995
2  2888 059.2004 126.0858 0718166 194.2568 320.8493 11.87342097181788
Source of the keplerian elements: AFSPC